Location: Newark
(46.8500°N, 5.1667°E)
Time: 05:44:42
(UTC+00:00)

ISS - Pass Details

Date: 19 September 2019
Orbit: 411 x 421 km, 51.6° (Epoch: 16 October)

Event Time Altitude Azimuth Distance (km) Brightness Sun altitude
Rises 18:35:03 0° 196° (SSW) 2,329 0.1 -9.5°
Reaches altitude 10° 18:37:46 10° 172° (S) 1,472 -1.2 -10.0°
Maximum altitude 18:39:44 15° 135° (SE) 1,210 -1.9 -10.3°
Enters shadow 18:40:17 15° 123° (ESE) 1,234 -2.0 -10.4°
